TimeCST,TemperatureF,Dew PointF,Humidity,Sea Level PressureIn,VisibilityMPH,Wind Direction,Wind SpeedMPH,Gust SpeedMPH,PrecipitationIn,Events,Conditions,WindDirDegrees,DateUTC
12:53 AM,44.6,39.2,81,30.30,8.0,Calm,Calm,-,N/A,,Overcast,0,2013-01-03 06:53:00
1:53 AM,44.1,39.9,85,30.31,8.0,Calm,Calm,-,N/A,,Overcast,0,2013-01-03 07:53:00
2:53 AM,44.1,41.0,89,30.32,7.0,Calm,Calm,-,N/A,,Overcast,0,2013-01-03 08:53:00
3:53 AM,45.0,41.0,86,30.32,8.0,NNE,3.5,-,N/A,,Overcast,20,2013-01-03 09:53:00
4:53 AM,44.1,37.0,76,30.31,10.0,NNE,8.1,-,N/A,,Overcast,30,2013-01-03 10:53:00
5:53 AM,44.1,32.0,63,30.34,10.0,NNE,6.9,-,N/A,,Overcast,30,2013-01-03 11:53:00
6:53 AM,43.0,30.0,60,30.35,10.0,NE,10.4,-,N/A,,Overcast,50,2013-01-03 12:53:00
7:53 AM,43.0,28.9,58,30.38,10.0,NE,9.2,-,N/A,,Overcast,40,2013-01-03 13:53:00
8:53 AM,43.0,30.0,60,30.42,10.0,NE,6.9,-,N/A,,Overcast,40,2013-01-03 14:53:00
9:53 AM,44.1,30.9,60,30.45,10.0,NNE,5.8,-,0.00,,Overcast,20,2013-01-03 15:53:00
10:53 AM,45.0,30.0,56,30.45,10.0,NNE,10.4,-,N/A,,Overcast,20,2013-01-03 16:53:00
11:53 AM,45.0,28.9,53,30.43,10.0,NNE,9.2,-,0.01,,Overcast,20,2013-01-03 17:53:00
12:53 PM,46.9,28.0,48,30.40,10.0,NNE,9.2,-,N/A,,Overcast,30,2013-01-03 18:53:00
1:53 PM,46.9,28.9,50,30.38,10.0,NE,9.2,-,N/A,,Overcast,40,2013-01-03 19:53:00
2:53 PM,46.9,28.0,48,30.38,10.0,NNE,6.9,-,N/A,,Overcast,30,2013-01-03 20:53:00
3:53 PM,46.9,30.0,52,30.38,10.0,NNE,9.2,-,N/A,,Overcast,30,2013-01-03 21:53:00
4:53 PM,46.9,30.0,52,30.39,10.0,NNE,8.1,-,N/A,,Overcast,30,2013-01-03 22:53:00
5:53 PM,46.9,30.0,52,30.40,10.0,NNE,4.6,-,N/A,,Overcast,20,2013-01-03 23:53:00
6:53 PM,46.9,30.0,52,30.40,10.0,ENE,3.5,-,N/A,,Overcast,60,2013-01-04 00:53:00
7:53 PM,46.9,30.9,54,30.40,10.0,Calm,Calm,-,N/A,,Overcast,0,2013-01-04 01:53:00
8:53 PM,46.0,32.0,58,30.40,10.0,Calm,Calm,-,N/A,,Overcast,0,2013-01-04 02:53:00
9:53 PM,46.0,30.9,56,30.41,10.0,Calm,Calm,-,N/A,,Overcast,0,2013-01-04 03:53:00
10:53 PM,46.0,30.9,56,30.41,10.0,Calm,Calm,-,N/A,,Overcast,0,2013-01-04 04:53:00
11:53 PM,45.0,33.1,63,30.42,10.0,NNW,3.5,-,N/A,,Overcast,340,2013-01-04 05:53:00